When you browse on this site, cookies collect data to enhance your experience and personalize the content and advertising you see.
Visit our Privacy Policy to learn more. By continuing to use the site, you agree to this use of cookies and data.
  • In Hungary
  • List of Countries
  • For 7 days
  • Water Temperature
  • Satellite Maps
  • Weather Map
  • News
  • Weather Widgets
  • user-avatar
    Login

    Hourly Weather Iokogama

    Today, 20 January, Sunday

    Time Temperature Precipitation Wind Pressure Humidity
    00:00 +4°C° 0 mm 3 mps 760 mmHg 56%
    01:00 +4°C° 0 mm 3 mps 759 mmHg 55%
    02:00 +3°C° 0 mm 3 mps 759 mmHg 55%
    03:00 +3°C° 0 mm 3 mps 758 mmHg 55%
    04:00 +4°C° 0 mm 2 mps 758 mmHg 55%
    05:00 +4°C° 0 mm 2 mps 757 mmHg 56%
    06:00 +4°C° 0 mm 2 mps 757 mmHg 56%
    07:00 +4°C° 0 mm 3 mps 756 mmHg 55%
    08:00 +5°C° 0 mm 3 mps 755 mmHg 54%
    09:00 +5°C° 0 mm 4 mps 754 mmHg 52%
    10:00 +8°C° 0 mm 5 mps 753 mmHg 51%
    11:00 +10°C° 0 mm 7 mps 752 mmHg 51%
    12:00 +13°C° 0 mm 9 mps 751 mmHg 50%
    13:00 +14°C° 0 mm 10 mps 750 mmHg 46%
    14:00 +16°C° 0 mm 10 mps 750 mmHg 42%
    15:00 +16°C° 0 mm 11 mps 749 mmHg 39%
    16:00 +13°C° 0 mm 10 mps 749 mmHg 42%
    17:00 +12°C° 0 mm 9 mps 749 mmHg 46%
    18:00 +10°C° 0 mm 9 mps 750 mmHg 50%
    19:00 +9°C° 0 mm 8 mps 750 mmHg 53%
    20:00 +8°C° 0 mm 7 mps 750 mmHg 55%
    21:00 +7°C° 0 mm 6 mps 751 mmHg 58%
    22:00 +5°C° 0 mm 6 mps 751 mmHg 58%
    23:00 +4°C° 0 mm 6 mps 752 mmHg 59%

    Tomorrow, 21 January, Monday

    Time Temperature Precipitation Wind Pressure Humidity
    00:00 +5°C° 0 mm 5 mps 752 mmHg 59%
    01:00 +3°C° 0 mm 5 mps 752 mmHg 59%
    02:00 +3°C° 0 mm 4 mps 753 mmHg 58%
    03:00 +3°C° 0 mm 4 mps 753 mmHg 58%
    04:00 +1°C° 0 mm 4 mps 754 mmHg 56%
    05:00 +1°C° 0 mm 4 mps 754 mmHg 54%
    06:00 +1°C° 0 mm 4 mps 755 mmHg 52%
    07:00 +1°C° 0 mm 4 mps 755 mmHg 46%
    08:00 +3°C° 0 mm 4 mps 756 mmHg 40%
    09:00 +4°C° 0 mm 3 mps 756 mmHg 34%
    10:00 +5°C° 0 mm 3 mps 756 mmHg 30%
    11:00 +7°C° 0 mm 2 mps 755 mmHg 27%
    12:00 +8°C° 0 mm 2 mps 755 mmHg 23%
    13:00 +8°C° 0 mm 2 mps 755 mmHg 25%
    14:00 +9°C° 0 mm 3 mps 754 mmHg 27%
    15:00 +9°C° 0 mm 3 mps 754 mmHg 28%
    16:00 +8°C° 0 mm 3 mps 754 mmHg 33%
    17:00 +7°C° 0 mm 2 mps 755 mmHg 39%
    18:00 +6°C° 0 mm 2 mps 755 mmHg 44%
    19:00 +4°C° 0 mm 3 mps 754 mmHg 41%
    20:00 +4°C° 0 mm 4 mps 754 mmHg 39%
    21:00 +2°C° 0 mm 5 mps 754 mmHg 36%
    22:00 +2°C° 0 mm 6 mps 754 mmHg 39%
    23:00 +2°C° 0 mm 7 mps 754 mmHg 42%

    Day after tomorrow, 22 January, Tuesday

    Time Temperature Precipitation Wind Pressure Humidity
    00:00 +2°C° 0 mm 8 mps 754 mmHg 45%
    01:00 +2°C° 0 mm 9 mps 753 mmHg 48%
    02:00 +2°C° 0 mm 10 mps 753 mmHg 50%
    03:00 +2°C° 0 mm 10 mps 753 mmHg 53%
    04:00 +2°C° 0 mm 10 mps 753 mmHg 53%
    05:00 +2°C° 0 mm 10 mps 753 mmHg 54%
    06:00 +2°C° 0 mm 10 mps 752 mmHg 54%
    07:00 +3°C° 0 mm 9 mps 753 mmHg 50%
    08:00 +5°C° 0 mm 8 mps 753 mmHg 46%
    09:00 +6°C° 0 mm 7 mps 753 mmHg 42%
    10:00 +8°C° 0 mm 6 mps 753 mmHg 39%
    11:00 +8°C° 0 mm 5 mps 753 mmHg 36%
    12:00 +10°C° 0 mm 4 mps 753 mmHg 33%
    13:00 +9°C° 0 mm 5 mps 754 mmHg 32%
    14:00 +9°C° 0 mm 5 mps 754 mmHg 31%
    15:00 +9°C° 0 mm 5 mps 754 mmHg 31%
    16:00 +8°C° 0 mm 5 mps 754 mmHg 33%
    17:00 +7°C° 0 mm 5 mps 755 mmHg 35%
    18:00 +6°C° 0 mm 5 mps 756 mmHg 37%
    19:00 +6°C° 0 mm 5 mps 756 mmHg 38%
    20:00 +5°C° 0 mm 5 mps 756 mmHg 39%
    21:00 +5°C° 0 mm 5 mps 757 mmHg 39%
    22:00 +4°C° 0 mm 4 mps 757 mmHg 41%
    23:00 +4°C° 0 mm 4 mps 757 mmHg 44%

    23 January, Wednesday

    Time Temperature Precipitation Wind Pressure Humidity
    00:00 +4°C° 0 mm 3 mps 757 mmHg 46%
    01:00 +3°C° 0 mm 3 mps 757 mmHg 49%
    02:00 +3°C° 0 mm 3 mps 756 mmHg 51%
    03:00 +3°C° 0 mm 3 mps 756 mmHg 54%
    04:00 +3°C° 0 mm 3 mps 756 mmHg 57%
    05:00 +4°C° 0 mm 2 mps 756 mmHg 60%
    06:00 +3°C° 0 mm 2 mps 756 mmHg 62%
    07:00 +4°C° 0 mm 2 mps 756 mmHg 58%
    08:00 +5°C° 0 mm 2 mps 756 mmHg 54%
    09:00 +6°C° 0 mm 2 mps 756 mmHg 50%
    10:00 +7°C° 0 mm 5 mps 755 mmHg 45%
    11:00 +9°C° 0 mm 7 mps 754 mmHg 40%
    12:00 +9°C° 0 mm 10 mps 753 mmHg 35%
    13:00 +11°C° 0 mm 10 mps 752 mmHg 34%
    14:00 +11°C° 0 mm 11 mps 751 mmHg 34%
    15:00 +10°C° 0 mm 12 mps 750 mmHg 33%
    16:00 +9°C° 0 mm 11 mps 750 mmHg 36%
    17:00 +8°C° 0 mm 10 mps 750 mmHg 38%
    18:00 +7°C° 0 mm 9 mps 750 mmHg 41%
    19:00 +6°C° 0 mm 9 mps 751 mmHg 43%
    20:00 +6°C° 0 mm 9 mps 751 mmHg 46%
    21:00 +5°C° 0 mm 8 mps 751 mmHg 48%
    22:00 +4°C° 0 mm 7 mps 752 mmHg 49%
    23:00 +4°C° 0 mm 6 mps 752 mmHg 50%

    24 January, Thursday

    Time Temperature Precipitation Wind Pressure Humidity
    00:00 +3°C° 0 mm 5 mps 752 mmHg 52%
    01:00 +2°C° 0 mm 5 mps 753 mmHg 49%
    02:00 +2°C° 0 mm 5 mps 753 mmHg 46%
    03:00 +1°C° 0 mm 5 mps 754 mmHg 44%
    04:00 +1°C° 0 mm 6 mps 754 mmHg 41%
    05:00 -1°C° 0 mm 6 mps 755 mmHg 38%
    06:00 -1°C° 0 mm 7 mps 756 mmHg 35%
    07:00 -1°C° 0 mm 7 mps 756 mmHg 32%
    08:00 +1°C° 0 mm 6 mps 757 mmHg 29%
    09:00 +2°C° 0 mm 6 mps 757 mmHg 26%
    10:00 +3°C° 0 mm 5 mps 757 mmHg 24%
    11:00 +5°C° 0 mm 4 mps 757 mmHg 22%
    12:00 +7°C° 0 mm 3 mps 757 mmHg 21%
    13:00 +7°C° 0 mm 3 mps 757 mmHg 21%
    14:00 +8°C° 0 mm 3 mps 758 mmHg 21%
    15:00 +8°C° 0 mm 3 mps 758 mmHg 21%
    16:00 +7°C° 0 mm 3 mps 758 mmHg 24%
    17:00 +5°C° 0 mm 3 mps 759 mmHg 28%
    18:00 +4°C° 0 mm 4 mps 760 mmHg 31%
    19:00 +3°C° 0 mm 4 mps 760 mmHg 34%
    20:00 +3°C° 0 mm 4 mps 761 mmHg 36%
    21:00 +1°C° 0 mm 5 mps 761 mmHg 38%
    22:00 +1°C° 0 mm 5 mps 761 mmHg 40%
    23:00 +1°C° 0 mm 5 mps 761 mmHg 42%

    25 January, Friday

    Time Temperature Precipitation Wind Pressure Humidity
    00:00 +1°C° 0 mm 5 mps 761 mmHg 43%
    01:00 +1°C° 0 mm 4 mps 761 mmHg 45%
    02:00 +1°C° 0 mm 4 mps 761 mmHg 46%
    03:00 +1°C° 0 mm 4 mps 761 mmHg 48%
    04:00 +1°C° 0 mm 4 mps 761 mmHg 49%
    05:00 +1°C° 0 mm 4 mps 761 mmHg 49%
    06:00 0°C° 0 mm 4 mps 762 mmHg 50%
    07:00 +1°C° 0 mm 4 mps 762 mmHg 48%
    08:00 +3°C° 0 mm 3 mps 762 mmHg 45%
    09:00 +4°C° 0 mm 3 mps 762 mmHg 43%
    10:00 +4°C° 0 mm 3 mps 761 mmHg 41%
    11:00 +6°C° 0 mm 2 mps 761 mmHg 40%
    12:00 +7°C° 0 mm 2 mps 760 mmHg 38%
    13:00 +7°C° 0 mm 2 mps 760 mmHg 39%
    14:00 +7°C° 0 mm 2 mps 759 mmHg 41%
    15:00 +8°C° 0 mm 1 mps 759 mmHg 42%
    16:00 +8°C° 0 mm 1 mps 759 mmHg 47%
    17:00 +7°C° 0 mm 1 mps 759 mmHg 52%
    18:00 +7°C° 0 mm 1 mps 759 mmHg 57%
    19:00 +6°C° 0 mm 2 mps 759 mmHg 60%
    20:00 +5°C° 0 mm 2 mps 759 mmHg 64%
    21:00 +5°C° 0 mm 2 mps 759 mmHg 67%
    22:00 +5°C° 0.1 mm 2 mps 759 mmHg 67%
    23:00 +4°C° 0.1 mm 3 mps 758 mmHg 68%
    Show more